Starlink 32041

operational
NORAD ID: 60202 Int'l Des: 2024-124 Owner: SPXS Country: US Constellation: starlink
LEOCIRCULAR

About Starlink 32041

Description loading...

Live Position

Loading 3D Globe...

Upcoming Passes

Altitude History

Altitude vs Time

uPlot chart will show altitude changes over time

Two-Line Element Set

1 60202U 24124V 25351.70777039 -.00000937 00000-0 -19529-4 0 9990
2 60202 53.1624 343.3080 0001380 92.5731 267.5428 15.30191576 82948
Epoch: Dec 17, 2025 • Age: 18 hours

Current Status

Altitude 489.5 km
Velocity 7.62 km/s
Sub-Earth Point -40.92°S, 56.08°W
Launch Date Jul 3, 2024
Age 1.4 years
Type internet

Technical Details

Classification Payload
Mass 730.00 kg
Dry Mass 700.00 kg
Total Mass 730.00 kg
Length 0.30 m
Diameter 4.10 m
Span 29.00 m
Shape Box + pan
Manufacturer SPXS
Bus Type Starlink V2M
Phase Status In Orbit
Owner/State SPXS/US

Large Constellations

Loading constellations...